[[{"header":{"parameterUnit":"m.s-1","parameterCategory":1,"la1":30.2991,"la2":30.254,"lo1":-89.0895,"lo2":-89.0444,"dy":0.0017,"dx":0.0017,"nx":28,"ny":28,"refTime":"2025-07-06T09:00:00:Z","depth":0,"parameterNumber":2,"parameterNumberName":"U-component_of_WINDS"},"data":[0,0,0,0,0,0,0,0,0,0,0,0,0,0,0,0,0,0,0,0,0,0,0,0,0,0,0,0,0,0,0,0,0,0,0,0,0,0,0,0,0,0,0,0,0,0,0,0,0,0,0,0,0,0,0,0,0,0,-1.5744,-1.5744,0,-1.5736,-1.5736,-1.5736,-1.5671,-1.5669,-1.5668,-1.5666,-1.5658,-1.566,-1.5661,0,0,0,0,0,0,0,0,0,0,0,0,0,-1.5704,-1.5705,-1.5744,-1.5744,-1.5744,-1.5736,-1.5736,-1.5736,-1.5671,-1.5669,-1.5667,-1.5665,-1.5658,-1.5659,-1.5661,0,0,0,0,0,0,0,0,0,0,0,0,0,-1.5711,-1.5706,-1.5744,-1.5711,-1.5708,-1.5736,-1.5736,-1.5736,-1.5672,-1.5669,-1.5667,-1.5665,-1.5657,-1.5659,-1.5661,-1.5721,0,0,-1.5667,-1.5668,0,0,0,0,0,0,0,0,-1.5711,-1.5713,-1.5716,-1.5713,-1.571,-1.5702,-1.5719,-1.5731,-1.5672,-1.5685,-1.5666,-1.5663,-1.5675,-1.5675,-1.5679,-1.5721,-1.572,-1.5667,-1.5668,-1.5669,-1.567,0,0,0,0,0,0,0,-1.5711,-1.5713,-1.5741,-1.5716,-1.5712,-1.5696,-1.5695,-1.5721,-1.5694,-1.5684,-1.5679,-1.5679,-1.5673,-1.5677,-1.5678,-1.572,-1.5667,-1.5669,-1.567,-1.5671,-1.5811,-1.5814,0,0,0,0,0,0,-1.5715,-1.5713,-1.5741,-1.5741,-1.5704,-1.5699,-1.5697,-1.5707,-1.5693,-1.5689,-1.5681,-1.5676,-1.5675,-1.5676,-1.5678,-1.5747,-1.5669,-1.5671,-1.5672,-1.5809,-1.5812,-1.5815,0,0,0,0,0,0,-1.5714,-1.5718,-1.5742,-1.5726,-1.5727,-1.5702,-1.5714,-1.5708,-1.5712,-1.5691,-1.5686,-1.5691,-1.5673,-1.5675,-1.5711,-1.5746,-1.5672,-1.5674,-1.5806,-1.581,-1.5813,-1.5887,0,0,0,0,0,0,-1.5713,-1.5718,-1.5741,-1.5727,-1.5728,-1.5775,-1.5716,-1.571,-1.5716,-1.5709,-1.5699,-1.5695,-1.5671,-1.5708,-1.5713,-1.5747,-1.5675,-1.5802,-1.5807,-1.5812,-1.5881,-1.5893,-1.5903,0,0,0,0,0,-1.5712,-1.5762,-1.5742,-1.5746,-1.5756,-1.5777,-1.5778,-1.575,-1.5719,-1.5741,-1.5728,-1.5695,-1.5741,-1.5713,-1.5717,-1.5753,-1.58,-1.5806,-1.5812,-1.5876,-1.5891,-1.5903,0,0,0,0,0,0,-1.5781,-1.5759,-1.5737,-1.5784,-1.5783,-1.5766,-1.5794,-1.5766,-1.5774,-1.5768,-1.5733,-1.5731,-1.5772,-1.5766,-1.5734,-1.581,-1.5765,-1.5772,-1.5813,-1.5826,-1.5837,-1.5838,-1.5677,0,0,0,0,0,-1.5801,-1.582,-1.58,-1.5843,-1.5844,-1.5819,-1.5827,-1.5806,-1.5803,-1.5803,-1.5791,-1.5791,-1.5805,-1.5815,-1.5827,-1.588,-1.5877,-1.5907,-1.5917,-1.5926,-1.5933,-1.5961,-1.5974,-1.5834,-1.5834,-1.5833,0,0,-1.5844,-1.5834,-1.5849,-1.5857,-1.5854,-1.5874,-1.5819,-1.5843,-1.5858,-1.5806,-1.5839,-1.5831,-1.5828,-1.5873,-1.5892,-1.5869,-1.5971,-1.5934,-1.5941,-1.5943,-1.5968,-1.5981,-1.5993,-1.5837,-1.5837,-1.5836,0,0,-1.5932,-1.5927,-1.5962,-1.596,-1.5956,-1.5939,-1.5947,-1.5935,-1.5927,-1.596,-1.5922,-1.5939,-1.5964,-1.5964,-1.5967,-1.6055,-1.6025,-1.606,-1.6116,-1.6144,-1.6155,-1.6164,-1.6196,-1.6208,-1.6066,-1.6066,-1.6067,0,-1.5986,-1.6015,-1.5984,-1.601,-1.6015,-1.5969,-1.6005,-1.6004,-1.6004,-1.6009,-1.5983,-1.6014,-1.6008,-1.6052,-1.6074,-1.6078,-1.6087,-1.6061,-1.6155,-1.6165,-1.6173,-1.6203,-1.6215,-1.6071,-1.607,-1.607,-1.6069,0,-1.6081,-1.6102,-1.6131,-1.6132,-1.614,-1.6171,-1.6145,-1.6157,-1.6135,-1.6121,-1.6155,-1.6147,-1.6156,-1.6165,-1.6144,-1.6206,-1.6192,-1.6162,-1.6116,-1.6192,-1.6219,-1.623,-1.6077,-1.6075,-1.6074,-1.6073,0,0,-1.6213,-1.6196,-1.6207,-1.6207,-1.6199,-1.6215,-1.6244,-1.6253,-1.6264,-1.6265,-1.6289,-1.6312,-1.6283,-1.6287,-1.6265,-1.6289,-1.636,-1.6255,-1.6254,-1.6275,-1.6429,-1.6452,-1.6466,-1.634,-1.6342,-1.6344,-1.6429,0,-1.6298,-1.6346,-1.6319,-1.6371,-1.639,-1.6347,-1.6372,-1.637,-1.6358,-1.6372,-1.6358,-1.6375,-1.6336,-1.6338,-1.636,-1.6347,-1.639,-1.634,-1.6362,-1.6363,-1.6364,-1.648,-1.6505,-1.6586,-1.6439,-1.6441,-1.6443,0,-1.6403,-1.6409,-1.6464,-1.6452,-1.6459,-1.6482,-1.6488,-1.6503,-1.65,-1.6489,-1.6493,-1.6465,-1.6493,-1.6448,-1.6486,-1.6452,-1.6459,-1.6454,-1.6457,-1.6458,-1.6408,-1.6485,-1.6611,-1.6623,-1.6459,-1.6458,-1.6457,0,-1.6494,-1.6516,-1.6551,-1.6552,-1.6539,-1.6557,-1.6552,-1.6547,-1.6554,-1.656,-1.6564,-1.6573,-1.6578,-1.6586,-1.6562,-1.6531,-1.6603,-1.6555,-1.6595,-1.6596,-1.6613,-1.6612,-1.6742,-1.6617,-1.6617,-1.6617,-1.6617,0,-1.6592,-1.6627,-1.6592,-1.6613,-1.6651,-1.662,-1.6658,-1.6649,-1.6645,-1.6664,-1.6627,-1.6646,-1.6613,-1.6629,-1.661,-1.6644,-1.6647,-1.6639,-1.6634,-1.6643,-1.6644,-1.6647,-1.6641,-1.662,-1.6619,-1.6619,-1.6618,0,-1.67,-1.6677,-1.6713,-1.6698,-1.6695,-1.6724,-1.6711,-1.6731,-1.6716,-1.6741,-1.6745,-1.6722,-1.6739,-1.6715,-1.6729,-1.6717,-1.6764,-1.675,-1.6765,-1.6761,-1.6803,-1.6799,-1.694,-1.6957,-1.6821,-1.6822,-1.6823,0,-1.6764,-1.679,-1.6778,-1.6788,-1.6786,-1.6803,-1.681,-1.678,-1.6789,-1.6788,-1.6808,-1.6821,-1.683,-1.6859,-1.6844,-1.6855,-1.6841,-1.6889,-1.6842,-1.685,-1.6842,-1.6841,-1.6843,-1.6899,-1.6901,-1.6902,-1.6903,0,-1.688,-1.6868,-1.6879,-1.6888,-1.6898,-1.6903,-1.6905,-1.6916,-1.6884,-1.6897,-1.6913,-1.6921,-1.6935,-1.6949,-1.6956,-1.6951,-1.6922,-1.6918,-1.6928,-1.6937,-1.6945,-1.6942,-1.6792,-1.6915,-1.6914,-1.6913,-1.6912,-1.6912,-1.6968,-1.6989,-1.6984,-1.6998,-1.6997,-1.7,-1.7018,-1.7005,-1.7019,-1.7028,-1.701,-1.7031,-1.7027,-1.7033,-1.7032,-1.7048,-1.7027,-1.7041,-1.7045,-1.7049,-1.7056,-1.6942,-1.7049,-1.7049,-1.7049,-1.7048,-1.7048,0,-1.7082,-1.7077,-1.709,-1.7095,-1.7107,-1.7078,-1.7079,-1.7091,-1.711,-1.7109,-1.7119,-1.7138,-1.7152,-1.7137,-1.7148,-1.7164,-1.7151,-1.7168,-1.7167,-1.7166,-1.7074,-1.7064,-1.7178,-1.7178,-1.7178,-1.7178,-1.7178,-1.7178,-1.7143,-1.7177,-1.7165,-1.7198,-1.7192,-1.7212,-1.7216,-1.7218,-1.7217,-1.724,-1.7251,-1.7242,-1.7236,-1.7246,-1.7257,-1.7253,-1.7258,-1.728,-1.7271,-1.7185,-1.7173,-1.716,-1.7151,-1.7282,-1.7282,-1.7362,-1.7363,-1.7363]},{"header":{"parameterUnit":"m.s-1","parameterCategory":1,"la1":30.2991,"la2":30.254,"lo1":-89.0895,"lo2":-89.0444,"dy":0.0017,"dx":0.0017,"nx":28,"ny":28,"refTime":"2025-07-06T09:00:00:Z","depth":0,"parameterNumber":3,"parameterNumberName":"V-component_of_WINDS"},"data":[0,0,0,0,0,0,0,0,0,0,0,0,0,0,0,0,0,0,0,0,0,0,0,0,0,0,0,0,0,0,0,0,0,0,0,0,0,0,0,0,0,0,0,0,0,0,0,0,0,0,0,0,0,0,0,0,0,0,-0.8734,-0.8736,0,-0.8873,-0.8874,-0.8876,-0.894,-0.894,-0.894,-0.894,-0.9081,-0.9084,-0.9088,0,0,0,0,0,0,0,0,0,0,0,0,0,-0.8523,-0.8527,-0.8734,-0.8736,-0.8737,-0.8872,-0.8874,-0.8876,-0.894,-0.894,-0.894,-0.894,-0.9079,-0.9084,-0.9089,0,0,0,0,0,0,0,0,0,0,0,0,0,-0.8634,-0.8528,-0.8734,-0.8786,-0.8792,-0.8872,-0.8874,-0.8877,-0.894,-0.894,-0.894,-0.894,-0.9078,-0.9084,-0.9089,-0.9128,0,0,-0.9107,-0.9109,0,0,0,0,0,0,0,0,-0.8627,-0.8641,-0.8776,-0.8782,-0.8789,-0.8889,-0.8852,-0.8961,-0.894,-0.8884,-0.894,-0.894,-0.9017,-0.9028,-0.9054,-0.9134,-0.914,-0.9107,-0.9111,-0.9113,-0.9115,0,0,0,0,0,0,0,-0.862,-0.8636,-0.8789,-0.8778,-0.8786,-0.8802,-0.8817,-0.8873,-0.8949,-0.8889,-0.8894,-0.8909,-0.902,-0.9048,-0.9058,-0.9142,-0.9107,-0.9112,-0.9116,-0.9118,-0.926,-0.926,0,0,0,0,0,0,-0.8604,-0.8629,-0.8784,-0.8793,-0.8706,-0.8806,-0.8823,-0.8857,-0.8949,-0.8963,-0.8909,-0.8912,-0.9039,-0.9051,-0.9063,-0.9114,-0.9113,-0.9119,-0.9122,-0.926,-0.926,-0.9261,0,0,0,0,0,0,-0.8599,-0.8617,-0.8779,-0.8712,-0.8734,-0.8809,-0.8847,-0.886,-0.8888,-0.8965,-0.8979,-0.8924,-0.9039,-0.9055,-0.9111,-0.912,-0.9121,-0.9126,-0.9259,-0.926,-0.926,-0.9216,0,0,0,0,0,0,-0.8593,-0.8615,-0.8631,-0.8712,-0.8737,-0.8825,-0.8848,-0.8863,-0.8898,-0.8902,-0.8982,-0.8995,-0.904,-0.9102,-0.9117,-0.9128,-0.9131,-0.9259,-0.926,-0.926,-0.9217,-0.9215,-0.9213,0,0,0,0,0,-0.8585,-0.8613,-0.8631,-0.865,-0.8759,-0.8825,-0.884,-0.8891,-0.8898,-0.8915,-0.8964,-0.8992,-0.9116,-0.9107,-0.9124,-0.9137,-0.9259,-0.9259,-0.926,-0.9218,-0.9215,-0.9213,0,0,0,0,0,0,-0.853,-0.8624,-0.8646,-0.8701,-0.8755,-0.8836,-0.8858,-0.8887,-0.894,-0.8942,-0.9003,-0.9021,-0.9071,-0.911,-0.9098,-0.9179,-0.919,-0.9194,-0.9152,-0.915,-0.9148,-0.9138,-0.9136,0,0,0,0,0,-0.8524,-0.8571,-0.865,-0.8691,-0.8717,-0.8783,-0.8814,-0.8849,-0.8907,-0.893,-0.8983,-0.9038,-0.9089,-0.9122,-0.9173,-0.9222,-0.9241,-0.924,-0.9237,-0.9235,-0.9239,-0.9267,-0.9268,-0.9263,-0.9263,-0.9263,0,0,-0.8513,-0.857,-0.8596,-0.8682,-0.8727,-0.8774,-0.8802,-0.885,-0.8884,-0.8937,-0.8994,-0.9034,-0.9099,-0.9152,-0.9178,-0.9186,-0.9244,-0.9236,-0.9234,-0.9239,-0.9268,-0.9269,-0.9269,-0.9264,-0.9263,-0.9263,0,0,-0.8516,-0.8564,-0.8604,-0.8649,-0.8718,-0.8761,-0.877,-0.8847,-0.8876,-0.8934,-0.8974,-0.9016,-0.9103,-0.9148,-0.9182,-0.92,-0.9229,-0.9215,-0.9205,-0.9233,-0.9233,-0.9234,-0.9241,-0.9242,-0.9218,-0.9218,-0.9218,0,-0.8494,-0.8566,-0.862,-0.8666,-0.8702,-0.8751,-0.8791,-0.8832,-0.8914,-0.8938,-0.8945,-0.9055,-0.9102,-0.9166,-0.9171,-0.9196,-0.9209,-0.9207,-0.9229,-0.923,-0.9231,-0.9239,-0.9241,-0.9216,-0.9216,-0.9216,-0.9216,0,-0.8534,-0.8583,-0.8607,-0.8685,-0.8724,-0.8766,-0.8826,-0.8859,-0.889,-0.8932,-0.8989,-0.9048,-0.9112,-0.9129,-0.916,-0.9197,-0.92,-0.9217,-0.923,-0.9229,-0.9237,-0.924,-0.9213,-0.9214,-0.9214,-0.9215,0,0,-0.8509,-0.8615,-0.8623,-0.8659,-0.8738,-0.8777,-0.8821,-0.8883,-0.891,-0.8964,-0.9003,-0.9075,-0.9091,-0.9129,-0.9165,-0.9189,-0.92,-0.9204,-0.9206,-0.9201,-0.9245,-0.9232,-0.9234,-0.9219,-0.922,-0.922,-0.9239,0,-0.8523,-0.8606,-0.8655,-0.8717,-0.8763,-0.8809,-0.8848,-0.89,-0.894,-0.8984,-0.9029,-0.9079,-0.9096,-0.912,-0.9145,-0.9193,-0.921,-0.9193,-0.9255,-0.9257,-0.9238,-0.9238,-0.9225,-0.9241,-0.9243,-0.9243,-0.9244,0,-0.8552,-0.8605,-0.8672,-0.8745,-0.8766,-0.88,-0.8861,-0.8903,-0.8962,-0.899,-0.9032,-0.9068,-0.9116,-0.9124,-0.919,-0.9177,-0.9206,-0.9233,-0.9235,-0.9243,-0.9251,-0.9247,-0.9247,-0.9249,-0.9249,-0.9249,-0.9248,0,-0.8527,-0.8615,-0.8666,-0.8695,-0.8782,-0.8805,-0.8842,-0.8901,-0.8935,-0.8988,-0.9011,-0.9069,-0.91,-0.9144,-0.9194,-0.9195,-0.9255,-0.9267,-0.928,-0.9278,-0.9291,-0.929,-0.9295,-0.9308,-0.9308,-0.9308,-0.9308,0,-0.8538,-0.8577,-0.8656,-0.8688,-0.8732,-0.8788,-0.883,-0.8871,-0.8924,-0.8963,-0.9007,-0.9043,-0.9107,-0.9151,-0.919,-0.9239,-0.9253,-0.9277,-0.9287,-0.9273,-0.927,-0.9293,-0.9294,-0.9308,-0.9308,-0.9308,-0.9308,0,-0.8518,-0.8573,-0.8632,-0.8709,-0.8729,-0.8758,-0.8824,-0.8856,-0.8898,-0.8948,-0.8963,-0.9028,-0.9082,-0.9136,-0.9209,-0.9236,-0.9284,-0.9297,-0.9264,-0.927,-0.9279,-0.9277,-0.93,-0.9306,-0.9313,-0.9313,-0.9313,0,-0.8523,-0.8554,-0.8634,-0.8664,-0.87,-0.8748,-0.8783,-0.8838,-0.8873,-0.8943,-0.8966,-0.9023,-0.9072,-0.9156,-0.921,-0.9265,-0.9281,-0.9285,-0.9289,-0.9275,-0.9281,-0.9279,-0.9283,-0.9283,-0.9283,-0.9283,-0.9282,0,-0.8525,-0.855,-0.8599,-0.8658,-0.8698,-0.8747,-0.8797,-0.8819,-0.8884,-0.892,-0.8976,-0.9014,-0.9088,-0.9144,-0.9206,-0.9243,-0.9274,-0.928,-0.9286,-0.9273,-0.9253,-0.9264,-0.9259,-0.928,-0.928,-0.928,-0.928,-0.928,-0.8518,-0.8548,-0.8609,-0.8662,-0.8705,-0.8751,-0.8785,-0.883,-0.8878,-0.8943,-0.8972,-0.9028,-0.9086,-0.9172,-0.9209,-0.9253,-0.9261,-0.927,-0.9272,-0.9273,-0.927,-0.9245,-0.9265,-0.9265,-0.9265,-0.9265,-0.9265,0,-0.8523,-0.8564,-0.8612,-0.8681,-0.8723,-0.8747,-0.8804,-0.8837,-0.8885,-0.8937,-0.8984,-0.9048,-0.9102,-0.9159,-0.9217,-0.9241,-0.9256,-0.9254,-0.9254,-0.9262,-0.926,-0.9249,-0.9241,-0.9241,-0.9241,-0.9241,-0.9241,-0.9241,-0.853,-0.8582,-0.8614,-0.8687,-0.8728,-0.8783,-0.8813,-0.8855,-0.8897,-0.8966,-0.9011,-0.9049,-0.9103,-0.9164,-0.9215,-0.923,-0.925,-0.9244,-0.9263,-0.926,-0.9262,-0.9264,-0.9254,-0.9247,-0.9247,-0.9262,-0.9262,-0.9262]}]]